Wind_Speed
17 14 19 18 15 13 16 19 19 17 16 11 8 6 5 9 4 3 7 6 5 6 9 14 16 16 20 21 17 16 17 23 30 34 36 37 36 34 30 28 29 28 29 29 27 25 24 24 23 20 16 15 16 15 14 14 13 13 14 14 14 13 13
18 14 16 18 15 10 13 21 20 15 12 11 11 7 5 7 1 1 7 6 5 5 6 12 17 18 22 21 16 15 16 21 27 32 36 37 36 34 30 28 28 28 28 28 28 26 25 24 23 21 18 15 15 15 14 14 14 13 13 14 14 14 13
18 15 14 17 17 14 14 13 9 10 10 8 11 7 3 4 1 1 3 4 6 9 8 12 20 21 20 19 17 16 17 20 24 28 32 36 37 35 32 30 30 29 28 28 28 26 25 25 23 22 20 17 16 15 15 15 14 14 14 14 15 14 14
16 16 12 16 19 19 18 13 9 9 8 5 9 7 3 3 2 1 1 2 6 14 13 13 19 21 18 17 18 17 17 19 20 24 29 33 36 37 36 35 33 31 30 29 29 27 25 24 24 23 21 20 18 17 17 16 16 16 15 15 15 15 15
12 17 11 11 16 19 19 17 13 10 9 8 10 9 6 4 3 4 3 2 6 13 15 13 15 19 18 16 18 19 18 17 17 20 23 29 37 41 40 38 35 33 32 33 33 31 30 27 26 25 23 21 19 18 19 18 17 16 16 16 16 15 15
5 5 3 6 14 18 18 16 14 11 11 12 9 6 10 9 6 7 6 3 6 11 14 12 12 18 19 17 18 19 18 17 16 17 20 28 37 40 39 38 37 35 35 35 35 33 33 31 29 27 26 23 20 19 20 19 18 17 17 17 17 16 16
15 10 4 5 11 15 17 17 18 16 14 16 12 6 11 15 10 10 6 2 5 9 12 12 14 19 19 17 18 18 17 17 19 22 22 24 28 31 36 39 40 39 37 36 34 33 32 31 28 28 27 25 22 21 21 21 20 19 18 18 17 17 17
17 11 7 9 11 13 15 15 19 21 18 17 15 9 12 16 14 13 8 3 7 11 11 11 14 17 17 18 20 19 17 18 21 24 22 19 20 25 33 39 39 39 37 35 34 33 32 29 27 27 26 23 21 21 22 22 20 19 19 18 18 18 18
11 6 6 5 5 9 13 13 16 23 23 19 17 14 11 10 13 17 11 4 9 16 13 11 14 15 14 16 20 21 20 19 21 21 19 18 20 23 29 35 38 39 39 37 35 33 30 27 27 26 25 23 21 20 21 21 20 19 19 18 18 19 19
5 2 4 10 12 7 8 12 14 20 22 21 20 17 11 5 9 16 12 9 15 21 18 15 15 13 12 13 15 17 19 20 19 18 19 20 21 23 26 31 37 40 39 38 35 33 30 29 27 25 24 23 21 20 20 20 19 19 19 18 18 18 19
11 11 14 15 15 11 10 14 16 19 23 23 23 19 15 9 4 8 9 12 20 24 21 17 14 11 11 11 10 9 13 16 17 17 18 20 21 22 24 28 35 38 37 35 34 33 32 30 28 26 26 25 22 21 22 21 19 19 19 19 18 18 19
14 15 17 14 13 16 17 17 15 12 13 13 22 21 17 14 4 11 14 14 20 26 23 18 14 10 11 12 11 10 10 12 14 13 14 17 21 22 22 24 30 35 34 33 34 35 33 31 29 28 27 24 21 21 21 21 21 20 19 19 19 19 19
13 13 15 13 14 16 14 12 12 15 22 15 2 8 12 17 9 12 19 16 16 22 19 14 13 12 11 11 12 13 11 8 8 10 11 14 18 20 18 19 24 31 34 34 34 36 34 30 28 26 25 23 22 22 24 25 24 22 21 21 20 20 19
15 14 12 11 13 13 11 12 11 12 17 15 11 10 5 12 11 19 23 16 15 17 13 12 13 12 11 9 9 12 12 10 9 9 10 11 11 12 13 14 18 22 26 30 33 34 33 31 29 28 27 27 25 25 27 27 25 22 22 23 23 23 23
16 13 9 10 10 9 10 11 12 12 12 12 14 12 7 12 20 26 24 20 21 19 14 13 12 10 10 8 6 9 10 10 10 11 11 9 7 6 8 11 14 16 19 23 28 29 30 31 31 30 30 29 27 25 26 26 25 23 22 23 23 23 23
15 11 8 10 8 6 7 11 15 15 12 14 16 15 15 17 23 24 21 21 22 19 15 14 12 11 11 8 5 8 11 10 11 12 12 11 9 8 8 10 13 16 17 18 21 22 25 26 26 26 26 26 25 24 23 24 23 21 21 22 23 23 21
13 12 10 11 10 6 6 11 15 15 12 10 9 10 14 16 20 20 19 20 19 15 13 11 11 10 8 5 4 9 13 13 12 12 13 14 12 10 10 12 13 15 16 18 19 20 23 24 25 25 25 25 24 23 22 23 22 20 21 23 24 24 22
10 11 9 9 7 3 5 9 9 10 12 10 7 11 14 13 15 18 19 18 17 16 13 10 9 8 6 4 4 10 16 15 12 13 14 14 15 13 13 14 14 14 16 17 18 19 21 23 24 24 25 25 24 23 23 24 24 24 23 24 24 23 22
8 9 6 4 4 5 8 10 7 6 10 10 7 10 14 11 12 17 19 17 15 15 13 10 8 6 6 6 6 11 16 13 9 12 15 15 15 15 15 17 17 17 16 16 16 16 18 20 21 21 23 24 23 23 24 24 25 24 24 24 25 25 25
6 4 4 0 5 6 7 10 10 8 9 8 4 4 11 11 7 9 13 15 13 11 11 9 7 6 6 7 9 10 11 11 10 12 15 16 16 16 16 17 18 17 16 15 15 15 15 17 18 19 20 21 22 21 21 20 20 19 20 22 23 23 23
4 1 3 3 8 7 5 8 11 12 11 9 7 4 9 11 6 5 7 9 8 6 7 9 9 8 7 5 10 11 11 13 14 15 15 16 17 18 16 14 13 13 13 13 14 14 14 15 17 18 18 20 20 20 19 17 16 16 18 20 22 23 23
3 5 3 1 4 5 5 8 9 8 8 6 5 5 8 10 7 5 5 5 5 4 4 5 6 8 5 2 9 15 16 18 16 13 14 14 12 13 13 11 10 11 12 13 14 14 14 15 17 18 18 19 20 20 19 19 19 20 22 23 24 24 25
5 7 7 2 4 5 7 8 7 8 11 10 5 3 7 10 8 5 5 5 5 4 4 4 3 1 3 4 4 6 10 14 12 10 11 11 7 6 6 5 5 7 8 10 12 14 16 18 19 20 21 21 22 23 23 23 24 24 24 24 24 25 25
7 9 10 5 4 5 9 4 2 6 12 11 6 3 5 9 8 6 6 5 5 5 5 4 3 4 5 2 4 6 6 8 7 4 6 8 5 4 4 2 3 4 5 6 9 11 14 16 18 19 20 21 22 23 23 23 23 22 22 23 23 24 25
7 9 10 7 3 6 10 5 2 5 8 6 5 5 7 9 10 9 8 6 5 6 5 4 3 3 4 5 5 5 5 6 6 6 8 8 5 3 2 3 3 4 5 7 8 9 11 12 14 15 16 17 18 19 19 19 19 19 19 20 20 20 20
7 8 7 6 5 7 9 6 5 5 7 7 7 8 9 10 9 9 10 9 9 9 8 8 7 7 8 9 9 8 6 4 4 5 7 8 8 7 6 5 5 6 7 8 8 9 10 11 12 12 12 13 14 15 15 15 16 16 15 15 16 15 14
7 7 5 4 3 6 8 6 3 4 8 12 11 9 9 9 7 6 7 8 9 9 9 10 10 10 11 10 10 10 9 6 5 4 4 6 7 7 6 6 5 5 5 6 6 7 9 10 10 10 11 11 11 10 10 11 11 11 11 12 14 13 11
8 7 6 4 3 5 7 5 6 9 12 13 10 8 9 10 7 5 5 5 6 7 7 7 7 8 9 8 7 6 6 6 6 5 4 3 3 3 4 4 4 3 3 3 4 5 7 8 8 9 9 8 7 6 6 7 8 7 7 9 11 13 13
8 7 8 8 8 8 7 7 9 12 13 11 8 6 8 9 7 6 5 4 4 5 5 4 4 4 5 5 4 2 2 4 5 3 3 3 2 2 2 2 2 2 3 4 4 5 6 7 7 7 6 5 5 5 5 6 6 6 6 7 8 10 12
12 11 10 9 9 10 9 8 8 8 9 9 7 5 6 7 7 6 5 5 5 5 4 3 3 3 3 3 3 2 2 3 3 2 1 2 2 2 2 1 2 2 3 5 5 6 7 7 7 6 5 5 5 5 5 5 6 5 5 6 6 8 9
11 13 11 8 9 10 9 8 7 6 7 7 5 5 7 7 8 8 7 7 6 6 6 5 4 3 3 2 2 2 2 2 1 2 3 2 2 2 3 3 2 3 4 4 5 7 7 8 8 8 7 7 6 6 6 5 6 5 5 5 5 6 7
7 10 11 9 10 10 9 9 10 9 8 8 7 6 6 6 7 7 7 7 6 6 6 6 5 4 4 3 3 2 2 2 2 2 4 3 2 2 3 3 3 4 5 5 6 7 7 8 9 9 9 9 9 8 8 7 7 7 6 6 6 6 7
7 9 11 12 13 12 9 7 8 8 7 6 5 4 4 4 4 5 5 5 6 6 6 5 5 4 5 5 5 4 3 4 4 5 5 4 4 5 5 4 4 5 7 8 9 10 10 10 10 10 10 10 10 10 10 10 10 9 9 9 8 7 8
10 10 11 12 13 13 10 6 4 6 6 4 2 1 1 1 1 2 3 3 4 5 6 6 6 6 6 5 5 5 5 5 6 8 7 6 7 8 8 8 7 7 8 9 11 12 12 12 12 12 11 11 11 11 12 12 12 12 12 11 10 10 10
11 11 11 12 12 11 8 4 2 3 4 4 2 1 1 1 0 0 2 3 4 4 5 6 7 8 7 7 7 7 6 6 7 9 9 8 9 10 11 11 11 10 10 11 12 13 14 14 14 14 14 14 14 14 14 14 14 14 14 13 13 13 13
13 12 10 11 12 10 6 3 0 1 0 1 1 2 3 2 1 1 1 2 3 4 4 5 6 8 9 9 9 9 8 8 9 9 9 9 10 11 12 13 13 12 12 13 13 14 14 15 15 16 16 16 16 16 16 17 17 18 17 17 16 15 16
12 11 8 8 9 9 7 4 3 4 4 3 2 2 2 3 2 2 2 3 3 4 4 4 5 6 8 9 9 9 9 10 10 11 11 11 11 12 13 14 14 13 14 15 15 16 16 16 16 17 18 18 18 18 19 20 20 21 21 21 20 19 19
Wind_Direction
225 217 205 206 209 198 194 205 215 226 234 215 155 118 171 186 161 159 202 225 244 262 259 225 215 222 221 215 215 219 213 207 209 211 211 210 209 209 208 207 208 209 211 213 216 212 207 211 216 221 215 197 198 208 207 207 204 204 208 207 207 211 213
200 198 209 210 211 213 199 202 211 217 218 202 168 138 158 190 190 185 208 233 236 241 257 221 206 203 206 209 213 214 207 204 208 209 209 211 211 210 208 208 210 213 214 214 215 213 210 212 215 220 221 209 202 207 210 210 209 208 208 209 208 209 213
190 185 212 219 210 213 209 200 206 203 188 166 165 165 170 186 145 135 222 278 253 236 231 200 192 194 201 205 207 212 210 207 209 209 208 210 211 210 208 207 210 214 218 218 216 215 213 212 214 217 221 218 208 206 211 211 209 209 210 210 210 210 212
184 177 207 226 214 213 219 227 242 221 202 176 173 175 168 166 138 121 236 316 257 237 229 207 197 199 204 204 204 212 215 212 211 210 210 210 210 210 207 205 207 208 211 214 214 216 216 215 216 217 219 218 212 210 213 214 210 210 211 211 211 212 212
179 168 183 225 221 221 226 236 245 222 193 192 197 199 203 182 142 145 163 257 250 234 229 221 206 203 205 206 206 210 215 216 214 214 213 210 210 210 207 205 206 205 205 208 208 209 211 214 215 217 219 218 214 211 213 216 215 214 214 213 212 212 213
265 201 219 236 220 220 223 230 238 224 190 181 181 197 210 205 177 157 160 202 229 224 224 216 199 197 200 205 207 208 214 220 220 222 218 211 211 212 211 209 209 210 209 208 207 206 207 210 211 211 215 216 213 210 212 216 218 216 217 217 214 214 215
288 287 290 230 220 221 222 220 226 238 226 200 196 204 202 197 176 148 147 204 212 214 223 210 191 192 198 208 215 213 217 224 226 229 226 217 215 218 218 214 210 208 208 208 210 209 208 211 211 208 210 214 213 210 211 215 217 217 219 218 216 217 219
275 261 211 208 219 225 234 222 214 235 244 218 214 227 205 191 170 147 142 191 202 200 212 211 199 200 208 216 218 216 217 223 229 231 229 222 219 218 217 217 213 210 211 214 216 212 210 214 211 207 210 214 217 216 215 217 216 217 220 220 218 217 219
295 265 200 217 225 228 258 254 222 232 243 232 228 233 217 195 180 175 167 153 185 191 199 209 205 204 211 215 217 219 222 227 235 238 233 227 225 220 217 217 218 217 217 219 217 212 213 215 211 210 212 215 219 220 220 221 219 220 223 225 223 220 219
311 289 283 322 339 339 296 279 252 242 243 239 238 240 242 236 194 187 173 137 164 184 194 202 203 203 210 214 220 228 230 233 245 251 244 237 232 225 219 216 216 218 218 216 215 214 214 213 211 211 213 215 217 219 221 222 221 221 224 227 230 227 223
282 287 288 306 328 329 310 307 293 267 254 244 238 249 266 266 201 152 155 161 170 177 186 196 200 200 202 207 217 232 237 245 260 265 254 248 243 230 220 215 213 215 216 213 215 218 214 210 208 208 210 211 212 218 222 222 221 221 223 226 229 229 228
288 295 288 292 314 302 291 315 330 316 303 259 228 236 248 240 186 117 148 179 178 175 182 194 198 192 190 198 206 211 226 250 266 265 247 246 251 243 230 220 212 211 214 215 217 216 210 208 207 207 209 207 206 216 223 222 219 220 223 228 229 228 230
294 299 288 290 309 301 297 332 354 358 7 16 302 264 246 233 223 150 163 181 178 174 177 184 190 191 189 196 204 202 203 215 241 253 241 238 252 253 246 235 219 212 211 212 212 209 206 205 205 205 207 206 205 213 217 215 215 217 222 226 226 226 227
298 297 294 295 304 314 342 3 354 346 6 23 14 350 278 218 186 156 163 165 157 162 167 172 185 194 192 193 200 200 195 191 200 228 237 231 240 246 244 239 226 216 213 210 208 205 202 202 203 204 207 206 207 213 215 213 214 217 220 221 220 221 224
300 299 300 296 303 338 360 353 345 345 356 14 24 38 88 138 141 150 163 159 147 151 162 172 178 188 196 195 193 197 199 196 195 204 214 213 208 206 209 219 218 215 216 216 213 208 204 203 204 206 207 207 209 217 222 221 219 219 220 222 224 229 233
296 300 300 294 305 354 6 358 358 354 357 16 36 70 106 127 136 145 154 151 145 147 159 169 167 176 197 200 182 195 205 207 199 189 182 177 177 180 181 189 201 206 211 218 219 218 216 216 216 217 219 218 218 222 227 228 228 226 226 229 233 238 244
293 302 314 319 325 333 2 21 14 1 6 19 34 78 112 137 145 142 139 139 143 150 159 166 166 172 189 194 181 189 200 211 206 181 165 163 169 180 182 181 188 198 204 209 216 222 225 225 225 225 228 229 228 228 228 231 235 236 236 237 239 241 243
302 313 316 333 355 16 53 50 30 11 24 25 29 74 100 136 152 146 142 141 147 158 166 174 182 179 172 173 182 182 192 205 198 170 168 177 179 179 179 179 184 191 194 199 207 216 221 224 225 226 228 230 230 229 228 230 235 237 238 243 247 247 247
298 312 307 329 39 84 85 74 65 42 42 38 39 83 103 126 149 150 149 149 153 159 162 169 188 192 175 164 163 179 192 199 177 163 175 187 189 186 182 181 182 182 185 189 197 206 214 221 225 224 223 223 223 225 228 230 233 235 237 242 247 250 253
274 308 338 36 128 116 102 94 82 56 51 50 36 101 105 103 125 146 142 144 152 160 165 173 182 194 198 180 161 174 195 190 172 180 188 186 189 192 189 186 183 181 184 191 198 205 213 221 224 222 222 224 225 228 232 235 238 241 244 247 249 252 255
226 146 55 129 154 141 130 122 98 71 63 55 28 56 94 89 90 106 115 127 135 148 181 196 198 203 216 188 144 149 180 192 192 203 206 197 194 194 194 196 192 188 194 200 204 209 216 223 227 229 235 241 243 243 241 241 245 248 253 257 258 259 259
186 155 119 130 176 156 137 131 124 114 107 87 43 55 83 80 84 104 114 116 111 120 159 182 194 206 230 206 135 133 148 166 171 174 182 189 192 189 192 200 203 202 207 211 214 217 220 225 229 234 240 245 246 246 244 247 255 261 267 269 268 266 265
178 163 152 189 255 189 140 112 120 154 158 147 138 92 71 68 74 103 125 126 123 130 133 124 133 148 330 296 215 156 147 158 154 140 156 178 181 159 162 193 214 218 218 217 219 222 224 228 232 236 241 244 244 245 248 253 261 268 272 274 273 272 270
196 176 164 180 261 201 166 136 87 172 174 157 135 97 71 70 74 92 112 125 128 125 129 132 116 68 40 19 206 200 200 198 194 187 195 207 202 135 123 166 210 222 233 229 226 226 226 229 233 237 242 246 249 251 254 257 262 267 270 271 272 272 271
184 173 165 174 208 177 172 171 76 138 166 145 103 116 114 93 85 89 93 98 102 103 121 151 155 131 102 92 112 147 175 189 191 193 204 217 218 192 201 240 235 225 229 228 226 228 228 230 233 238 242 245 246 249 253 257 261 264 266 267 268 269 272
154 154 151 155 163 167 170 157 94 122 158 147 139 150 133 108 96 91 88 89 91 89 98 115 120 123 120 108 100 105 116 131 156 179 204 224 233 240 254 267 259 241 232 232 235 237 237 239 240 241 245 247 249 254 260 265 267 268 264 262 263 267 273
142 139 142 153 172 181 182 172 127 143 153 144 147 156 140 123 116 102 96 100 101 98 101 109 110 105 103 101 97 96 96 95 101 129 183 227 244 255 263 260 249 239 235 242 250 251 251 256 260 263 266 267 267 269 273 273 274 276 270 262 259 261 265
144 138 144 151 145 157 177 177 141 132 134 137 148 156 142 136 134 125 119 115 112 118 121 119 116 109 101 97 92 90 92 91 94 108 126 155 219 245 255 254 247 232 224 240 257 264 267 269 272 277 281 283 283 281 276 273 274 280 279 266 259 258 261
144 143 149 148 136 134 152 162 149 141 143 151 163 155 137 137 139 134 131 125 119 123 127 132 139 129 114 113 111 95 86 89 89 103 116 123 163 178 182 237 249 236 241 256 265 273 279 278 276 281 285 287 291 287 282 279 276 274 276 266 256 253 255
132 128 137 142 134 133 145 156 156 155 159 168 171 149 130 133 135 130 129 130 125 116 111 124 147 142 140 153 149 143 136 122 119 148 182 184 183 168 167 224 265 270 265 266 267 270 275 277 280 287 293 294 294 286 280 277 269 261 255 249 247 251 253
135 133 137 136 128 129 138 145 146 148 152 158 159 141 131 131 129 127 127 129 131 130 129 134 147 149 159 186 174 159 180 184 171 211 240 236 203 178 190 206 236 268 266 264 267 267 268 273 277 282 289 293 292 284 274 268 266 264 257 247 248 253 254
134 133 133 120 113 124 140 145 143 147 155 158 157 149 139 134 131 131 134 137 142 146 144 145 153 153 158 187 207 214 239 266 277 264 263 268 260 234 221 215 240 267 268 266 266 263 260 264 268 274 281 287 287 282 275 269 266 268 269 268 264 258 253
147 140 135 123 121 134 151 150 139 143 157 167 166 154 143 138 140 142 146 152 158 162 158 155 159 165 176 195 209 219 238 264 276 271 267 271 267 263 263 260 254 258 262 265 266 266 265 264 264 268 275 279 280 279 276 274 272 271 273 274 273 269 268
164 154 146 144 152 162 170 175 164 154 157 166 170 139 111 132 159 146 146 165 184 184 174 172 181 191 202 210 211 210 218 236 254 259 264 270 271 272 275 274 266 261 263 265 268 269 270 271 270 271 271 271 272 273 271 272 274 274 276 277 275 273 275
170 159 151 160 178 186 179 172 167 144 142 149 147 66 1 319 276 114 145 172 199 204 190 190 197 202 210 216 217 215 216 222 235 246 254 259 262 268 275 277 275 271 266 266 268 269 270 273 275 276 276 274 273 274 275 277 278 278 279 282 282 282 282
181 176 172 177 193 209 210 198 222 340 165 158 26 357 345 328 307 287 196 193 209 219 212 205 205 207 212 219 223 225 224 225 230 239 247 252 256 263 269 271 271 270 267 265 265 264 265 268 272 276 279 279 277 278 279 281 282 282 283 285 286 287 287
201 196 200 206 212 224 232 236 257 278 284 304 345 352 320 295 289 275 254 240 230 227 227 224 222 220 219 222 226 228 226 226 232 240 246 252 257 262 264 265 267 268 268 267 267 265 264 263 265 268 272 274 275 277 280 281 281 281 281 282 283 284 285
Height
3141 3143 3144 3146 3148 3149 3149 3151 3151 3152 3153 3154 3156 3160 3163 3164 3165 3165 3165 3165 3164 3163 3162 3161 3163 3164 3165 3167 3168 3169 3170 3173 3175 3178 3181 3183 3186 3189 3191 3193 3195 3198 3200 3202 3204 3206 3208 3209 3211 3212 3214 3216 3218 3219 3221 3223 3224 3226 3227 3228 3230 3232 3234
3140 3142 3144 3144 3147 3148 3148 3149 3149 3151 3153 3153 3154 3159 3163 3164 3165 3165 3164 3164 3163 3163 3161 3160 3160 3162 3163 3165 3166 3167 3169 3170 3172 3174 3177 3181 3184 3186 3189 3191 3194 3196 3199 3201 3203 3205 3207 3208 3210 3211 3213 3215 3217 3218 3220 3222 3223 3225 3226 3227 3229 3231 3232
3139 3142 3144 3144 3144 3146 3147 3148 3149 3150 3151 3152 3153 3156 3159 3162 3164 3165 3165 3164 3163 3162 3161 3160 3160 3161 3162 3164 3165 3166 3167 3168 3170 3172 3175 3178 3181 3184 3186 3189 3192 3195 3198 3200 3202 3204 3205 3207 3209 3211 3212 3214 3216 3217 3219 3220 3222 3224 3225 3226 3228 3229 3231
3140 3140 3143 3143 3143 3144 3145 3147 3148 3149 3150 3151 3152 3154 3155 3158 3162 3165 3166 3165 3162 3160 3160 3160 3160 3161 3162 3163 3164 3164 3166 3167 3169 3171 3173 3176 3179 3182 3183 3185 3188 3191 3195 3198 3200 3203 3205 3206 3208 3209 3211 3213 3215 3217 3218 3219 3221 3222 3223 3225 3226 3228 3229
3139 3140 3141 3142 3143 3144 3144 3146 3147 3147 3149 3150 3151 3153 3153 3156 3159 3162 3165 3165 3160 3158 3159 3159 3161 3162 3162 3162 3163 3164 3165 3166 3168 3170 3172 3175 3176 3177 3179 3182 3184 3188 3191 3194 3196 3199 3202 3204 3205 3207 3210 3212 3214 3216 3217 3218 3219 3221 3222 3224 3225 3226 3228
3137 3139 3140 3141 3143 3144 3145 3146 3146 3146 3147 3148 3150 3152 3152 3154 3156 3157 3161 3162 3159 3157 3158 3158 3159 3161 3161 3162 3163 3164 3165 3166 3167 3169 3170 3171 3172 3174 3177 3180 3183 3186 3189 3191 3193 3196 3199 3201 3202 3205 3207 3209 3212 3214 3216 3217 3218 3219 3220 3222 3224 3225 3226
3136 3137 3138 3140 3141 3142 3144 3146 3146 3146 3147 3147 3148 3149 3150 3151 3153 3155 3158 3160 3158 3157 3157 3158 3159 3160 3161 3162 3163 3164 3166 3166 3166 3165 3166 3169 3171 3174 3176 3178 3181 3184 3186 3189 3193 3196 3198 3200 3202 3205 3206 3208 3210 3212 3214 3215 3216 3217 3219 3220 3222 3223 3224
3136 3136 3138 3139 3140 3141 3143 3145 3146 3145 3145 3147 3146 3146 3148 3149 3150 3151 3155 3159 3158 3156 3157 3158 3159 3160 3161 3162 3162 3163 3165 3165 3164 3164 3166 3169 3171 3172 3174 3176 3179 3182 3184 3188 3191 3194 3196 3199 3202 3204 3206 3208 3209 3211 3212 3213 3214 3216 3217 3218 3220 3221 3223
3138 3138 3138 3139 3140 3141 3141 3142 3145 3145 3144 3146 3146 3146 3147 3147 3147 3147 3150 3154 3154 3154 3155 3157 3158 3159 3161 3161 3162 3164 3164 3164 3165 3167 3168 3168 3169 3170 3171 3174 3176 3179 3183 3186 3189 3191 3194 3198 3200 3203 3205 3207 3208 3210 3211 3212 3213 3214 3215 3217 3218 3220 3221
3142 3142 3142 3141 3141 3141 3140 3141 3143 3143 3143 3144 3144 3144 3144 3145 3145 3145 3145 3148 3151 3152 3153 3155 3156 3158 3159 3160 3162 3163 3164 3164 3166 3169 3169 3166 3166 3167 3168 3170 3173 3176 3180 3183 3187 3190 3192 3195 3198 3201 3203 3205 3207 3208 3210 3211 3212 3213 3214 3215 3216 3218 3219
3142 3143 3143 3143 3143 3143 3142 3142 3142 3143 3143 3142 3142 3141 3141 3142 3143 3144 3144 3144 3148 3151 3152 3153 3155 3156 3158 3160 3160 3161 3163 3164 3166 3168 3168 3166 3165 3164 3165 3167 3170 3173 3176 3180 3183 3186 3189 3192 3195 3198 3200 3202 3204 3206 3208 3209 3211 3211 3212 3213 3214 3215 3217
3142 3143 3143 3143 3144 3144 3144 3144 3143 3141 3139 3138 3139 3140 3140 3140 3142 3144 3145 3144 3145 3149 3151 3153 3155 3157 3158 3159 3159 3160 3162 3163 3164 3166 3166 3167 3167 3165 3164 3166 3167 3169 3172 3176 3180 3183 3186 3189 3192 3195 3197 3199 3200 3203 3205 3207 3209 3210 3211 3211 3212 3214 3215
3141 3143 3143 3143 3143 3143 3143 3143 3141 3139 3136 3135 3136 3137 3137 3138 3139 3141 3144 3145 3146 3148 3151 3154 3156 3156 3157 3157 3159 3160 3161 3161 3163 3166 3166 3167 3168 3167 3167 3168 3168 3169 3170 3174 3178 3181 3185 3188 3189 3192 3195 3196 3198 3200 3202 3204 3204 3206 3208 3210 3211 3212 3214
3140 3141 3142 3142 3142 3141 3140 3140 3139 3138 3138 3138 3137 3135 3135 3137 3138 3140 3143 3145 3147 3149 3151 3152 3154 3154 3155 3156 3157 3158 3160 3161 3162 3164 3165 3166 3167 3169 3170 3170 3171 3172 3173 3175 3177 3180 3183 3185 3187 3189 3191 3192 3194 3196 3198 3200 3202 3204 3205 3206 3207 3209 3211
3139 3140 3140 3141 3141 3140 3138 3138 3137 3136 3137 3139 3138 3137 3138 3139 3140 3141 3143 3145 3146 3149 3151 3151 3152 3153 3154 3155 3156 3157 3159 3161 3161 3162 3163 3164 3166 3168 3170 3171 3173 3175 3177 3178 3180 3182 3183 3184 3185 3186 3187 3188 3191 3192 3194 3197 3201 3203 3203 3202 3203 3207 3210
3140 3139 3140 3140 3140 3139 3137 3137 3136 3137 3138 3140 3141 3141 3141 3141 3142 3143 3145 3145 3146 3148 3150 3150 3151 3152 3153 3155 3157 3157 3158 3159 3160 3161 3162 3163 3165 3166 3168 3171 3173 3175 3177 3180 3182 3184 3185 3186 3188 3188 3189 3190 3191 3190 3191 3193 3195 3198 3200 3201 3203 3206 3210
3141 3140 3139 3138 3137 3138 3140 3140 3140 3141 3142 3143 3144 3145 3143 3142 3143 3145 3146 3146 3147 3148 3149 3150 3150 3151 3153 3155 3156 3157 3157 3158 3159 3162 3163 3164 3164 3166 3167 3169 3171 3174 3177 3179 3181 3183 3185 3186 3188 3189 3190 3191 3191 3190 3191 3192 3193 3195 3197 3198 3201 3204 3208
3142 3141 3140 3139 3139 3141 3144 3144 3145 3145 3144 3143 3145 3146 3145 3145 3146 3147 3147 3147 3147 3149 3150 3150 3151 3152 3154 3155 3155 3156 3157 3157 3159 3163 3165 3165 3165 3166 3167 3168 3170 3172 3174 3177 3179 3181 3182 3184 3185 3186 3188 3189 3190 3190 3191 3192 3193 3194 3195 3196 3197 3201 3204
3142 3142 3141 3142 3143 3145 3146 3146 3147 3147 3145 3145 3146 3147 3147 3147 3148 3147 3146 3146 3147 3148 3149 3149 3151 3152 3154 3155 3155 3157 3157 3158 3162 3164 3164 3165 3167 3167 3167 3168 3168 3170 3172 3175 3177 3179 3180 3182 3183 3184 3186 3187 3188 3189 3190 3192 3193 3194 3194 3195 3196 3197 3200
3142 3142 3142 3143 3145 3146 3146 3146 3146 3146 3146 3146 3147 3148 3147 3147 3147 3145 3144 3145 3146 3147 3147 3149 3151 3153 3154 3155 3156 3157 3158 3160 3162 3164 3163 3164 3166 3167 3167 3167 3168 3169 3171 3173 3176 3178 3180 3181 3182 3184 3185 3187 3188 3189 3190 3191 3192 3193 3193 3194 3195 3196 3198
3141 3142 3143 3144 3145 3145 3145 3145 3145 3146 3147 3148 3148 3148 3147 3147 3146 3145 3144 3144 3145 3147 3148 3149 3150 3151 3154 3156 3156 3156 3158 3161 3162 3164 3164 3164 3164 3164 3165 3166 3167 3169 3171 3173 3175 3177 3179 3181 3183 3185 3186 3187 3188 3189 3190 3190 3191 3192 3193 3193 3194 3195 3196
3141 3141 3143 3145 3146 3145 3144 3144 3144 3146 3147 3148 3148 3148 3148 3147 3147 3146 3145 3144 3145 3148 3149 3151 3152 3152 3154 3157 3157 3155 3157 3160 3161 3162 3163 3164 3164 3164 3163 3165 3167 3169 3171 3173 3174 3176 3178 3180 3183 3184 3186 3187 3187 3188 3189 3189 3190 3191 3191 3192 3192 3193 3194
3140 3140 3142 3146 3146 3144 3144 3144 3144 3145 3146 3147 3147 3148 3148 3148 3148 3147 3146 3146 3147 3149 3150 3151 3152 3154 3155 3157 3158 3158 3160 3161 3161 3161 3163 3165 3166 3165 3164 3165 3168 3169 3171 3173 3175 3176 3178 3180 3182 3183 3184 3185 3186 3186 3187 3188 3188 3189 3189 3189 3189 3190 3190
3139 3139 3141 3144 3145 3144 3144 3144 3143 3144 3145 3146 3146 3148 3150 3150 3149 3148 3148 3148 3149 3150 3151 3151 3152 3154 3156 3157 3158 3160 3162 3163 3164 3164 3165 3166 3167 3167 3167 3168 3169 3170 3172 3173 3174 3176 3177 3179 3180 3181 3182 3183 3184 3184 3185 3186 3186 3186 3186 3186 3186 3187 3187
3139 3140 3140 3142 3144 3143 3143 3144 3144 3144 3145 3146 3146 3148 3150 3150 3149 3148 3148 3148 3149 3151 3152 3152 3153 3155 3156 3157 3158 3160 3161 3163 3165 3165 3166 3167 3167 3168 3168 3169 3169 3170 3171 3172 3173 3174 3176 3177 3178 3179 3179 3181 3182 3182 3183 3183 3183 3183 3183 3183 3183 3183 3184
3139 3140 3140 3141 3142 3143 3143 3144 3145 3144 3144 3146 3147 3148 3149 3149 3149 3148 3148 3149 3151 3153 3153 3154 3155 3156 3156 3157 3158 3160 3161 3162 3164 3164 3165 3166 3167 3168 3168 3169 3170 3170 3171 3172 3173 3173 3174 3175 3176 3177 3177 3178 3179 3179 3180 3180 3180 3181 3181 3181 3181 3181 3181
3138 3139 3140 3140 3141 3141 3142 3144 3144 3144 3144 3145 3146 3147 3148 3149 3149 3149 3150 3151 3153 3154 3155 3156 3156 3157 3157 3158 3158 3160 3161 3162 3163 3164 3165 3165 3166 3167 3168 3169 3170 3171 3171 3172 3172 3173 3173 3174 3174 3175 3176 3176 3176 3177 3177 3178 3178 3179 3179 3179 3179 3180 3180
3137 3138 3139 3140 3140 3141 3142 3143 3143 3144 3145 3146 3146 3147 3149 3150 3150 3150 3151 3152 3153 3155 3156 3156 3157 3157 3158 3159 3159 3160 3162 3163 3163 3164 3165 3165 3166 3167 3168 3169 3170 3171 3172 3173 3173 3173 3173 3173 3173 3174 3174 3175 3175 3175 3176 3177 3177 3178 3178 3178 3178 3179 3179
3136 3137 3138 3139 3140 3141 3141 3142 3143 3144 3145 3146 3147 3148 3149 3150 3151 3151 3152 3153 3154 3155 3156 3157 3158 3158 3159 3160 3160 3161 3162 3163 3164 3164 3165 3166 3166 3167 3168 3169 3170 3171 3172 3172 3173 3173 3173 3173 3174 3174 3174 3174 3174 3175 3175 3176 3176 3177 3177 3177 3177 3178 3178
3136 3137 3138 3139 3140 3141 3141 3142 3143 3144 3145 3145 3147 3148 3149 3150 3151 3152 3153 3154 3154 3155 3156 3157 3158 3158 3158 3159 3160 3161 3162 3163 3163 3164 3165 3166 3167 3167 3168 3168 3169 3170 3171 3171 3172 3173 3173 3173 3174 3174 3174 3174 3174 3174 3175 3175 3176 3176 3176 3177 3177 3177 3177
3136 3137 3138 3139 3140 3141 3142 3143 3143 3144 3145 3146 3147 3148 3149 3150 3151 3152 3153 3154 3155 3156 3156 3157 3157 3158 3158 3159 3159 3160 3161 3162 3163 3163 3164 3165 3167 3168 3168 3169 3169 3169 3170 3170 3171 3172 3172 3173 3173 3173 3173 3173 3174 3174 3174 3175 3175 3175 3176 3176 3176 3177 3177
3136 3137 3138 3139 3140 3141 3142 3143 3144 3145 3146 3146 3147 3148 3149 3150 3151 3152 3153 3154 3155 3156 3156 3157 3157 3158 3159 3159 3159 3160 3161 3161 3162 3163 3164 3165 3166 3166 3167 3168 3169 3169 3169 3170 3170 3171 3171 3172 3172 3172 3173 3173 3173 3173 3174 3174 3174 3175 3175 3175 3175 3176 3176
3136 3137 3138 3139 3140 3140 3141 3143 3144 3145 3145 3146 3147 3148 3148 3149 3150 3152 3152 3153 3154 3155 3156 3157 3157 3158 3158 3159 3159 3160 3161 3161 3162 3162 3163 3164 3165 3165 3166 3167 3168 3169 3169 3169 3170 3170 3170 3170 3171 3171 3171 3172 3172 3172 3173 3173 3173 3174 3174 3174 3174 3175 3175
3135 3137 3138 3138 3139 3140 3141 3143 3144 3145 3145 3145 3146 3147 3148 3149 3149 3150 3152 3152 3153 3154 3155 3156 3157 3157 3158 3158 3159 3160 3161 3161 3161 3161 3162 3164 3164 3164 3164 3165 3166 3167 3168 3168 3169 3169 3169 3169 3170 3170 3170 3171 3171 3171 3171 3172 3172 3172 3173 3173 3173 3173 3173
3135 3137 3138 3138 3139 3140 3141 3143 3143 3144 3145 3145 3146 3147 3147 3148 3149 3150 3150 3151 3151 3152 3153 3154 3155 3156 3157 3157 3158 3159 3160 3161 3161 3161 3161 3162 3163 3163 3163 3164 3165 3166 3167 3167 3168 3168 3168 3168 3168 3169 3169 3169 3170 3170 3170 3170 3171 3171 3171 3171 3172 3172 3172
3136 3137 3138 3139 3139 3140 3141 3142 3143 3143 3144 3145 3146 3146 3146 3147 3148 3148 3149 3150 3150 3151 3152 3153 3154 3154 3155 3156 3156 3157 3159 3159 3160 3160 3160 3160 3161 3161 3162 3162 3163 3164 3165 3165 3166 3166 3167 3167 3167 3167 3167 3168 3168 3168 3168 3169 3169 3169 3169 3170 3170 3170 3170
3136 3138 3138 3139 3140 3140 3141 3142 3143 3143 3143 3144 3145 3145 3145 3146 3146 3147 3147 3148 3149 3149 3150 3151 3152 3153 3153 3154 3155 3155 3156 3157 3158 3158 3158 3159 3159 3159 3159 3159 3160 3161 3162 3162 3163 3163 3164 3165 3165 3165 3166 3166 3166 3167 3167 3167 3167 3167 3167 3167 3168 3168 3168